• Processing (Info)

  • MPEC 2015-U37 : 2015 UK51

    The following Minor Planet Electronic Circular may be linked-to from your own Web pages, but must not otherwise be redistributed electronically.

    A form allowing access to any MPEC is at the bottom of this page.


    Read MPEC 2015-U36 Read MPEC 2015-U38


    M.P.E.C. 2015-U37                                Issued 2015 Oct. 21, 18:47 UT
    
         The Minor Planet Electronic Circulars contain information on unusual
             minor planets and routine data on comets.  They are published
        on behalf of Division F of the International Astronomical Union by the
              Minor Planet Center, Smithsonian Astrophysical Observatory,
                              Cambridge, MA 02138, U.S.A.
    
                 Prepared using the Tamkin Foundation Computer Network
    
                                  MPC@CFA.HARVARD.EDU
                URL https://www.minorplanetcenter.net/    ISSN 1523-6714
    
                                       2015 UK51
    
    Observations:
         K15U51K* C2015 10 19.42955 03 13 10.528+01 29 01.08         20.9 wLEU037F51
         K15U51K  C2015 10 19.43998 03 13 07.378+01 30 08.55         20.9 wLEU037F51
         K15U51K  C2015 10 19.45043 03 13 04.233+01 31 16.20         20.9 wLEU037F51
         K15U51K  C2015 10 19.46088 03 13 01.074+01 32 23.54         21.0 wLEU037F51
         K15U51K KC2015 10 20.28706303 09 21.71 +02 57 13.0          21.0 VuEU037H21
         K15U51K KC2015 10 20.29779903 09 18.74 +02 58 16.4          20.8 VuEU037H21
         K15U51K KC2015 10 20.30981103 09 15.45 +02 59 27.2          21.0 VuEU037H21
         K15U51K _C2015 10 20.34970503 09 08.720+03 03 42.80         20.7 RtEU037568
         K15U51K _C2015 10 20.35086303 09 08.401+03 03 49.71         20.3 RtEU037568
         K15U51K _C2015 10 20.35274003 09 07.898+03 04 00.76         20.4 RtEU037568
         K15U51K  C2015 10 21.49004 03 04 29.000+04 49 43.34         21.2 wLEU037F51
         K15U51K  C2015 10 21.50073 03 04 26.276+04 50 39.82         21.0 wLEU037F51
         K15U51K  C2015 10 21.52196 03 04 20.840+04 52 31.50         21.1 wLEU037F51
    
    Observer details:
    568 Mauna Kea.  Observers R. J. Wainscoat, D. Woodworth.  Measurers M. Micheli,
        R. J. Wainscoat.  3.6-m Canada-France-Hawaii Telescope + CCD.
    F51 Pan-STARRS 1, Haleakala.  Observers B. Gibson, T. Goggia, N. Primak,
        A. Schultz, M. Willman.  Measurers K. Chambers, S. Chastel, L. Denneau,
        H. Flewelling, M. Huber, E. Lilly, E. Magnier, R. Wainscoat, C. Waters,
        R. Weryk.  1.8-m Ritchey-Chretien + CCD.
    H21 Astronomical Research Observatory, Westfield.  Observer R. Holmes.
        Measurers S. Foglia, L. Buzzi, T. Linder, R. Holmes.  0.81-m f/4.0
        astrograph + CCD.
    
    Orbital elements:
    2015 UK51                                                Earth MOID = 0.0665 AU
    Epoch 2016 Jan. 13.0 TT = JDT 2457400.5                 MPC
    M  38.29694              (2000.0)            P               Q
    n   0.28642876     Peri.  286.91443     +0.82382243     +0.55877497
    a   2.2792483      Node    39.25947     -0.44565638     +0.74238941
    e   0.6094105      Incl.    8.66369     -0.35029557     +0.36963292
    P   3.44           H   24.0           G   0.15           U   5
    Residuals in seconds of arc
    151019 F51  0.0   0.1-    151020 H21  0.0   0.0     151021 F51  0.1-  0.2-
    151019 F51  0.1-  0.1-    151020 H21  0.6+  0.3-    151021 F51  0.1+  0.0
    151019 F51  0.0   0.1+    151020 568  0.1+  0.1+    151021 F51  0.1-  0.1+
    151019 F51  0.1-  0.1+    151020 568  0.0   0.2+
    151020 H21  0.1-  0.3+    151020 568  0.1+  0.1+
    
    Ephemeris:
    2015 UK51                a,e,i = 2.28, 0.61, 9                   q = 0.8903
    Date    TT    R. A. (2000) Decl.     Delta      r     Elong.  Phase     V
    2015 09 21    11 47 40.3 -53 05 16   0.1323  0.9328    54.1   119.3    24.2
    ...
    2015 10 06    05 36 44.8 -43 47 55   0.07225 1.0135    98.8    77.2    21.0
    ...
    2015 10 14    03 45 51.7 -11 29 21   0.09324 1.0684   137.6    39.0    20.5
    ...
    2015 10 20    03 10 35.9 +02 29 01   0.1277  1.1134   155.5    21.8    20.8
    2015 10 21    03 06 25.0 +04 05 51   0.1344  1.1212   157.8    19.6    20.9
    2015 10 22    03 02 34.0 +05 33 39   0.1412  1.1290   159.9    17.6    20.9
    ...
    2015 10 28    02 44 44.6 +11 58 41   0.1855  1.1772   170.8     7.8    21.2
    ...
    2015 11 05    02 30 00.5 +16 44 26   0.2524  1.2440   177.6     1.9    21.7
    ...
    2015 11 20    02 17 56.6 +20 46 24   0.4011  1.3735   160.9    13.6    23.5
    
    A. U. Tomatic                (C) Copyright 2015 MPC           M.P.E.C. 2015-U37
    

    Read MPEC 2015-U36 Read MPEC 2015-U38


    MPEC number:

    Enter an MPEC number in one of the following forms:

    • 1997-B01 (the full form)
    • J97B01 (the packed version of the full form)
    • B01 (the abbreviated form)